Prague, Czech Republic

12:33 AM CEST on March 27, 2017 (GMT +0200)
Prague-Ruzyne Airport

Weather History for LKPR - February, 2014

Change the Weather History Date:

Sunday, February 23, 2014

  Actual Average Record
Temperature  
Mean Temperature 38 °F -  
Max Temperature 49 °F 44 °F 57 °F (1997)
Min Temperature 28 °F 29 °F 6 °F (2011)
Degree Days  
Heating Degree Days 26    
Moisture  
Dew Point 28 °F    
Average Humidity 65    
Maximum Humidity 93    
Minimum Humidity 31    
Precipitation  
Precipitation 0.00 in 0.04 in - ()
Sea Level Pressure  
Sea Level Pressure 30.23 in    
Wind  
Wind Speed 6 mph ()    
Max Wind Speed 9 mph    
Max Gust Speed -    
Visibility 10.9 miles    
Events      
Averages and records for this station are not official NWS values.
T = Trace of Precipitation, MM = Missing Value Source: Averaged Metar Reports

Daily Weather History Graph

Daily Weather History Graph

Search for Another Location

Airport or City:

Trip Planner

Search our weather history database for the weather conditions in past years. The results will help you decide how hot, cold, wet, or windy it might be!

Date:

Astronomy

Feb. 23, 2014 Rise Set
Actual Time 6:58 AM CET 5:34 PM CET
Civil Twilight 6:25 AM CET 6:07 PM CET
Nautical Twilight 5:48 AM CET 6:44 PM CET
Astronomical Twilight 5:11 AM CET 7:22 PM CET
Moon 1:56 AM CET (2/23) 11:03 AM CET (2/23)
Length of Visible Light 11h 41m
Length of Day
10h 35m
Last Quarter, 42% of the Moon is Illuminated
Feb 23
Last Quarter
Mar 1
New
Mar 8
First Quarter
Mar 16
Full
Mar 24
Last Quarter

Hourly Weather History & Observations

Time (CET) Temp. Windchill Dew Point Humidity Pressure Visibility Wind Dir Wind Speed Gust Speed Precip Events Conditions
12:00 AM 31 °F - 26 °F 73% 30.20 in 22 mi SW 6.7 mph - -   Scattered Clouds
12:00 AM 30.2 °F 21.9 °F 26.6 °F 86% 30.12 in - SSW 9.2 mph - N/A   Clear
12:30 AM 32.0 °F 24.2 °F 28.4 °F 87% 30.12 in - SSW 9.2 mph - N/A   Clear
1:00 AM 34 °F - 29 °F 74% 30.21 in 22 mi SW 8.9 mph - -   Mostly Cloudy
1:00 AM 33.8 °F 26.4 °F 28.4 °F 81% 30.15 in - SW 9.2 mph - N/A   Clear
1:30 AM 33.8 °F 26.4 °F 30.2 °F 87% 30.15 in - SSW 9.2 mph - N/A   Clear
2:00 AM 34 °F - 29 °F 77% 30.22 in 22 mi SW 8.9 mph - -   Mostly Cloudy
2:00 AM 33.8 °F 26.4 °F 30.2 °F 87% 30.15 in - SW 9.2 mph - N/A   Clear
2:30 AM 35.6 °F 29.2 °F 30.2 °F 81% 30.15 in - SW 8.1 mph - N/A   Clear
3:00 AM 34 °F - 29 °F 77% 30.23 in 22 mi SW 8.9 mph - -   Mostly Cloudy
3:00 AM 33.8 °F 27.7 °F 28.4 °F 81% 30.15 in - SW 6.9 mph - N/A   Clear
3:30 AM 33.8 °F 27.7 °F 28.4 °F 81% 30.15 in - SW 6.9 mph - N/A   Clear
4:00 AM 34 °F - 29 °F 74% 30.24 in 19 mi SW 8.9 mph - -   Mostly Cloudy
4:00 AM 33.8 °F 27.7 °F 28.4 °F 81% 30.15 in - SW 6.9 mph - N/A   Clear
4:30 AM 30.2 °F 22.6 °F 28.4 °F 93% 30.15 in - SSW 8.1 mph - N/A   Clear
5:00 AM 30 °F - 27 °F 83% 30.26 in 22 mi SSW 8.9 mph - -   Scattered Clouds
5:00 AM 30.2 °F 23.4 °F 26.6 °F 86% 30.18 in - SSW 6.9 mph - N/A   Clear
5:30 AM 30.2 °F 23.4 °F 26.6 °F 86% 30.18 in - SSW 6.9 mph - N/A   Clear
6:00 AM 29 °F - 26 °F 85% 30.28 in 25 mi SW 8.9 mph - -   Scattered Clouds
6:00 AM 28.4 °F 21.2 °F 26.6 °F 93% 30.18 in - SSW 6.9 mph - N/A   Clear
6:30 AM 28.4 °F 21.2 °F 26.6 °F 93% 30.21 in - SW 6.9 mph - N/A   Clear
7:00 AM 29 °F - 26 °F 86% 30.29 in 19 mi WSW 6.7 mph - -   Scattered Clouds
7:00 AM 28.4 °F 20.4 °F 26.6 °F 93% 30.21 in - SW 8.1 mph - N/A   Clear
7:30 AM 30.2 °F 22.6 °F 26.6 °F 86% 30.21 in - SW 8.1 mph - N/A   Clear
8:00 AM 32 °F - 29 °F 83% 30.31 in 25 mi SSW 6.7 mph - -   Scattered Clouds
8:00 AM 32.0 °F 24.8 °F 28.4 °F 87% 30.24 in - SSW 8.1 mph - N/A   Clear
8:30 AM 33.8 °F 27.0 °F 30.2 °F 87% 30.24 in - SSW 8.1 mph - N/A   Clear
9:00 AM 37 °F - 31 °F 72% 30.31 in 25 mi WSW 6.7 mph - -   Scattered Clouds
9:00 AM 37.4 °F 32.8 °F 32.0 °F 81% 30.24 in - SW 5.8 mph - N/A   Clear
9:30 AM 39.2 °F 34.2 °F 32.0 °F 75% 30.24 in - SW 6.9 mph - N/A   Clear
10:00 AM 42 °F - 33 °F 60% 30.30 in 25 mi WSW 4.5 mph - -   Scattered Clouds
10:00 AM 41.0 °F 38.0 °F 32.0 °F 70% 30.24 in - SSW 4.6 mph - N/A   Clear
10:30 AM 42.8 °F 41.1 °F 32.0 °F 66% 30.27 in - SW 3.5 mph - N/A   Clear
11:00 AM 46 °F - 32 °F 46% 30.30 in 25 mi SSE 2.2 mph - -   Scattered Clouds
11:00 AM 46.4 °F 45.2 °F 32.0 °F 57% 30.27 in - SSE 3.5 mph - N/A   Clear
11:30 AM 46.4 °F 44.3 °F 32.0 °F 57% 30.27 in - South 4.6 mph - N/A   Clear
12:00 PM 47 °F - 31 °F 42% 30.29 in 25 mi SSE 4.5 mph - -   Scattered Clouds
12:00 PM 48.2 °F - 32.0 °F 54% 30.24 in - South 5.8 mph - N/A   Clear
12:30 PM 48.2 °F - 32.0 °F 54% 30.24 in - South 4.6 mph - N/A   Clear
1:00 PM 47 °F - 30 °F 38% 30.27 in 25 mi South 4.5 mph - -   Mostly Cloudy
1:00 PM 48.2 °F - 30.2 °F 50% 30.24 in 6.2 mi South 5.8 mph - N/A   Partly Cloudy
1:30 PM 46.4 °F 45.2 °F 28.4 °F 50% 30.24 in 6.2 mi WSW 3.5 mph - N/A   Partly Cloudy
2:00 PM 48 °F - 30 °F 36% 30.26 in 25 mi South 6.7 mph - -   Partly Cloudy
2:00 PM 48.2 °F - 28.4 °F 46% 30.24 in 6.2 mi Variable 2.3 mph - N/A   Scattered Clouds
2:30 PM 50.0 °F - 26.6 °F 40% 30.21 in 6.2 mi SSW 6.9 mph - N/A   Partly Cloudy
3:00 PM 49 °F - 28 °F 32% 30.25 in 25 mi South 4.5 mph - -   Scattered Clouds
3:00 PM 48.2 °F - 28.4 °F 46% 30.21 in 6.2 mi SSE 5.8 mph - N/A   Partly Cloudy
3:30 PM 48.2 °F - 28.4 °F 46% 30.21 in 6.2 mi SSE 4.6 mph - N/A   Partly Cloudy
4:00 PM 48 °F - 27 °F 31% 30.25 in 25 mi SSE 4.5 mph - -   Scattered Clouds
4:00 PM 48.2 °F - 26.6 °F 43% 30.21 in 6.2 mi SSE 3.5 mph - N/A   Partly Cloudy
4:30 PM 48.2 °F - 26.6 °F 43% 30.21 in 6.2 mi SE 4.6 mph - N/A   Partly Cloudy
5:00 PM 47 °F - 27 °F 33% 30.25 in 37 mi SE 4.5 mph - -   Scattered Clouds
5:00 PM 46.4 °F 45.2 °F 26.6 °F 46% 30.21 in - SE 3.5 mph - N/A   Clear
5:30 PM 44.6 °F 42.2 °F 26.6 °F 49% 30.21 in - SSE 4.6 mph - N/A   Clear
6:00 PM 43 °F - 26 °F 39% 30.26 in 31 mi SE 6.7 mph - -   Scattered Clouds
6:00 PM 42.8 °F - 26.6 °F 53% 30.21 in - SE 2.3 mph - N/A   Clear
6:30 PM 42.8 °F 41.1 °F 26.6 °F 53% 30.21 in - SSE 3.5 mph - N/A   Clear
7:00 PM 41 °F - 26 °F 42% 30.28 in 31 mi SE 6.7 mph - -  
7:00 PM 41.0 °F 38.0 °F 26.6 °F 57% 30.21 in - SE 4.6 mph - N/A   Clear
7:30 PM 41.0 °F 39.0 °F 26.6 °F 57% 30.24 in - SE 3.5 mph - N/A   Clear
8:00 PM 37 °F - 26 °F 52% 30.29 in 25 mi ESE 6.7 mph - -  
8:00 PM 37.4 °F 32.8 °F 24.8 °F 60% 30.24 in - ESE 5.8 mph - N/A   Clear
8:30 PM 39.2 °F 37.0 °F 26.6 °F 61% 30.24 in - SE 3.5 mph - N/A   Clear
9:00 PM 39 °F - 26 °F 48% 30.29 in 19 mi SE 6.7 mph - -  
9:00 PM 39.2 °F 35.0 °F 26.6 °F 61% 30.24 in - SE 5.8 mph - N/A   Clear
9:30 PM 37.4 °F 32.8 °F 26.6 °F 65% 30.24 in - SSE 5.8 mph - N/A   Clear
10:00 PM 36 °F - 27 °F 59% 30.31 in 19 mi South 4.5 mph - -  
10:00 PM 35.6 °F 30.7 °F 26.6 °F 70% 30.24 in - SSE 5.8 mph - N/A   Clear
10:30 PM 37.4 °F 32.1 °F 26.6 °F 65% 30.24 in - SSE 6.9 mph - N/A   Clear
11:00 PM 38 °F - 27 °F 52% 30.30 in 16 mi SSE 4.5 mph - -  
11:00 PM 37.4 °F 32.8 °F 26.6 °F 65% 30.24 in - SSE 5.8 mph - N/A   Clear
11:30 PM 37.4 °F 32.1 °F 26.6 °F 65% 30.24 in - SSE 6.9 mph - N/A   Clear